User: anonymous   Login
Location: Red Bud (historical)
(37.7759°N, 88.4053°W)
Time: 16:46:23
(UTC+00:00)
Language:

OAO 3 Rocket - Orbit

View from above orbital plane
View from above orbital plane
View from above satellite
View from above satellite

Ground track
Ground track

The orbit data is extracted from the following two-line orbital elements,

1 06155U 72065B   21016.65637785  .00000091  00000-0  17953-4 0  9993
2 06155  35.0045  83.9439 0037283 141.5889 218.7473 14.71638307564042
Epoch (UTC): 16 January 2021 15:45:11
Eccentricity: 0.0037283
inclination: 35.0045°
perigee height: 629 km
apogee height: 682 km
right ascension of ascending node: 83.9439°
argument of perigee: 141.5889°
revolutions per day: 14.71638307
mean anomaly at epoch: 218.7473°
orbit number at epoch: 56404

The dashed part of the orbit path shows where the satellite is in the earth's shadow,  

DLR